Simultaneous Nadir Overpasses (SNOs) Predictions

Prediction of SNOs between GOES-16 and METOP-B Satellite Orbit:

Table of predicted SNOs for the next 14.0 days since TLE Epoch: 10/18/2019
Index Date Time (GOES-16) GOES-16 Lat,Lon METOP-B Lat,Lon Distance(km) Time Diff (sec)
1 10/20/2019 02:42:50 -0.02, -75.19 -0.77, -78.55 382.84 80
2 10/21/2019 02:24:52 -0.02, -75.19 0.36, -73.56 186.46 80
3 10/22/2019 14:41:04 0.03, -75.21 0.69, -78.11 331.02 80
4 10/23/2019 14:23:06 0.03, -75.22 -0.44, -73.12 238.54 80
5 10/25/2019 02:42:07 -0.03, -75.21 -0.58, -77.72 285.88 80
6 10/26/2019 02:21:28 -0.03, -75.22 0.55, -72.73 284.04 80
7 10/27/2019 14:37:42 0.01, -75.25 0.44, -77.29 232.69 80
8 10/28/2019 14:19:42 0.01, -75.26 -0.63, -72.29 337.62 80
9 10/30/2019 02:36:04 -0.01, -75.26 -0.38, -76.89 185.64 80
10 10/31/2019 02:18:05 -0.02, -75.27 0.75, -71.90 385.04 80
11 11/01/2019 14:34:18 0.02, -75.31 0.25, -76.46 130.49 80




NCC Satellite Simultaneous Nadir Overpasses (SNOs) Prediction Service
